Regional Weather Roundup
Issued by NWS Boston, MA

Current Version | Previous Version | Text Only | Print | Product List | Glossary Off
Versions: 1 2 3 4 5 6 7 8 9 10 11 12 13 14 15 16 17 18 19 20 21 22 23 24 25 26 27 28 29 30 31 32 33 34 35 36 37 38 39 40 41 42 43 44 45 46 47 48 49 50
976 ASUS41 KBOX 270910 RWRBOX REGIONAL WEATHER ROUNDUP NATIONAL WEATHER SERVICE TAUNTON MA 500 AM EDT MON JUN 27 2016 NOTE: "FAIR" INDICATES FEW OR NO CLOUDS BELOW 12,000 FEET WITH NO SIGNIFICANT WEATHER AND/OR OBSTRUCTIONS TO VISIBILITY. THE FOLLOWING OBSERVATION LOCATIONS DO NOT REPORT PRESENT WEATHER...PROVINCETOWN... SMITHFIELD...BLOCK ISLAND...KEENE...AND OXFORD. MAZALL-271000- EASTERN MASSACHUSETTS CITY SKY/WX TMP DP RH WIND PRES REMARKS BOSTON PTCLDY 65 48 54 SW13 30.10R BEVERLY CLEAR 63 50 62 SW6 30.08S LAWRENCE CLEAR 64 51 62 SW7 30.09S BEDFORD CLEAR 61 49 64 S6 30.08R BLUE HILL N/A 61 51 70 S15 30.11R NORWOOD CLEAR 59 53 80 S7 30.11R MARSHFIELD CLEAR 63 59 88 VRB7 30.11S PLYMOUTH CLEAR 61 59 93 SW9 30.14R TAUNTON CLEAR 55 53 93 SE5 30.12S NEW BEDFORD CLEAR 60 56 86 S3 30.13S $$ MAZALL-271000- CAPE COD AND THE ISLANDS CITY SKY/WX TMP DP RH WIND PRES REMARKS FALMOUTH N/A 59 57 94 S6 30.15S HYANNIS CLEAR 65 53 65 S9 30.14R CHATHAM CLEAR 63 56 78 SW10G18 30.16S PROVINCETOWN CLEAR 63 57 81 S13 30.14S NANTUCKET CLEAR 61 58 90 SW9 30.17R MARTHAS VNYRD CLEAR 62 59 90 SW9 30.15F $$ MAZALL-271000- CENTRAL AND WESTERN MASSACHUSETTS CITY SKY/WX TMP DP RH WIND PRES REMARKS WORCESTER CLEAR 59 49 69 SW12 30.12R FITCHBURG CLEAR 63 55 75 CALM 30.09S ORANGE CLEAR 59 55 87 CALM 30.10S SPRINGFIELD CLEAR 63 52 68 S7 30.09S WESTFIELD CLEAR 60 54 80 S3 30.10R NORTH ADAMS CLEAR 62 57 83 E5 30.08R PITTSFIELD CLEAR 60 55 83 N3 30.09S $$ RIZALL-271000- RHODE ISLAND CITY SKY/WX TMP DP RH WIND PRES REMARKS PROVIDENCE CLEAR 61 58 90 S6 30.13S NEWPORT CLEAR 63 60 90 VRB5 30.13S BLOCK ISLAND CLEAR 64 61 90 SW13 30.15S SMITHFIELD PTCLDY 59 52 77 S3 30.12S WESTERLY PTCLDY 64 59 83 SW6 30.14S $$ CTZALL-271000- CONNECTICUT CITY SKY/WX TMP DP RH WIND PRES REMARKS BRADLEY INTL PTCLDY 63 54 72 S6 30.10S HARTFORD CLEAR 65 57 75 S5 30.11R BRIDGEPORT PTCLDY 70 58 65 SW7 30.12R DANBURY CLEAR 61 52 72 CALM 30.13R GROTON PTCLDY 62 62 100 SW6 30.13R NEW HAVEN CLEAR 67 60 78 SW5 30.12S CHESTER FAIR 64 61 88 S7 30.13S MERIDEN CLEAR 58 55 90 CALM 30.12S WILLIMANTIC CLEAR 58 53 84 CALM 30.13S OXFORD N/A 59 54 82 CALM 30.15R $$ MEZ002-015-021-024-NHZ003-005-008-011-012-014-VTZ005-008-271000- NORTHERN NEW ENGLAND CITY SKY/WX TMP DP RH WIND PRES REMARKS PORTLAND ME PTCLDY 59 56 89 SW5 30.06R BANGOR ME PTCLDY 59 54 83 S5 30.06S CONCORD NH CLEAR 64 59 83 SE3 30.06S MANCHESTER NH PTCLDY 66 56 70 S6 30.05S NASHUA NH PTCLDY 65 57 75 SE3 30.08R PORTSMOUTH NH PTCLDY 62 55 79 SW5 30.05S JAFFREY NH CLEAR 61 55 81 SW5 30.11S KEENE NH CLEAR 59 55 88 CALM 30.10S BURLINGTON VT FAIR 74 58 57 S15 29.96S MT. WASHINGTON PTCLDY 51 49 95 W20G31 N/A $$ NYZ052-076-271000- EASTERN NEW YORK CITY SKY/WX TMP DP RH WIND PRES REMARKS ALBANY PTCLDY 69 55 60 S13 30.04S NEW YORK CITY PTCLDY 70 53 54 SW8 30.11R $$ ANZALL-271000- MARINE OBSERVATIONS STATION/POSITION TIME TEMP WIND PRES VSBY WAVE AIR SEA DIR/SP/G HT/PER (UTC) (F) (DEG/KT/KT) (MB) (MI) (FT/S) BOSTON BUOY 0850 62 61 170/ 14/ 16 1019.0S 2/ 9 BUZZARDS BAY 0800 64 210/ 16/ 17 1021.0F NANTUCKET SOUND 0850 64 67 210/ 12/ 14 1021.0R 1/ 3 MASS BAY-STELLWA 0804 62 62 N/A 1 7/8 2/ 8 ISLE OF SHOALS 0900 63 210/ 16/ 16 1017.9R S OF BLOCK IS 0825 65 N/A 3/ 9 $$ ......................KEY......................... SKY/WX - SKY CONDITION/PRESENT WEATHER TMP - TEMPERATURE IN FAHRENHEIT DWPT - DEWPOINT IN FAHRENHEIT RH - RELATIVE HUMIDITY IN PERCENT WIND - DIRECTION AND SPEED IN MPH PRES - MEAN SEA LEVEL PRESSURE IN INCHES OF HG WCI - WIND CHILL INDEX VSB - VISIBILITY IN MILES HX - HEAT INDEX TC - TEMPERATURE IN CELSIUS VRB - VARIABLE WIND DIRECTION N/A - NOT AVAILABLE

USA.gov is the U.S. government's official web portal to all federal, state and local government web resources and services.